Theta_e
312 311 312 312 312 312 313 313 313 313 313 313 313 313 313 311 312 307 300 306 308 317 321 312 312 309 313 311 310 311 298 294 296 299 302 306 305 309 314 313 316 319 319 324 322
312 311 311 311 311 312 312 313 313 313 313 313 313 313 313 312 303 300 309 314 317 318 309 306 305 305 306 309 311 307 298 299 304 304 302 306 307 308 308 310 315 319 324 324 320
311 311 311 311 311 312 312 312 312 312 312 312 312 312 312 310 295 296 316 315 317 318 310 309 308 306 299 309 308 307 300 304 305 306 306 305 305 309 305 304 312 318 320 320 317
310 310 310 311 311 311 312 312 312 312 312 312 311 311 310 304 281 303 315 313 314 312 308 306 304 300 294 299 307 302 306 306 307 308 304 304 307 305 303 303 310 324 324 321 319
310 310 310 310 311 311 312 312 312 312 312 311 309 310 304 294 293 303 310 311 309 308 303 301 300 301 294 295 305 303 305 306 307 307 306 307 303 302 304 307 314 325 323 321 321
310 310 310 310 310 311 311 311 312 311 310 309 310 311 299 288 302 307 308 307 305 303 302 300 300 303 296 294 301 307 307 306 306 306 307 304 303 303 304 305 313 321 319 320 321
310 310 309 310 310 311 311 311 311 310 310 310 311 307 298 294 306 308 308 306 307 303 300 302 304 302 298 292 299 305 302 305 305 306 304 305 299 299 305 306 302 318 319 319 320
309 310 310 310 310 309 310 311 310 311 312 310 311 302 294 307 307 305 306 303 307 306 305 306 307 304 295 298 298 296 300 296 303 304 305 301 293 300 304 302 301 305 315 319 320
309 308 308 309 308 309 310 310 311 312 310 311 303 297 290 307 301 305 304 300 303 305 306 307 307 300 294 292 290 293 289 293 297 304 301 298 293 300 303 302 300 300 308 317 319
309 309 309 309 308 309 310 309 309 305 302 306 302 291 296 293 302 303 305 303 300 301 300 301 298 291 286 290 282 287 287 292 293 299 299 296 295 300 304 303 300 299 298 312 318
308 308 308 308 308 309 303 294 289 287 292 289 291 292 294 300 305 301 303 302 301 298 291 292 288 281 284 290 292 292 290 290 293 300 297 295 295 298 302 302 300 297 297 298 314
308 308 308 308 308 309 299 291 292 294 287 294 294 295 298 301 295 298 304 297 295 288 290 287 281 286 292 292 291 291 290 289 293 299 296 295 295 298 300 302 302 298 298 298 302
308 308 308 308 308 302 295 294 300 300 288 290 295 295 293 298 294 293 298 296 293 289 287 282 286 290 289 289 289 289 288 289 290 294 293 292 290 293 299 302 303 303 300 300 301
308 309 308 308 300 297 294 300 301 301 275 279 286 291 294 297 292 298 299 295 294 290 290 288 291 287 285 286 288 285 292 293 291 289 284 290 281 289 293 296 299 301 302 301 299
308 307 307 307 295 294 297 300 300 297 259 280 286 297 294 293 294 294 299 294 290 291 290 285 287 285 285 286 289 287 293 292 290 286 285 285 282 286 291 291 295 299 299 300 300
306 306 306 300 297 297 299 299 297 269 258 278 286 285 287 290 291 295 293 295 293 290 291 289 293 289 287 290 291 293 290 289 287 284 276 283 282 282 287 290 293 298 299 299 299
306 305 302 301 291 299 297 291 269 262 275 272 278 284 285 284 288 289 288 287 284 277 276 285 287 291 291 287 290 289 284 276 274 273 273 283 281 283 290 292 291 292 292 293 295
305 305 302 301 299 297 292 275 262 263 266 282 282 284 280 284 286 286 284 284 288 286 283 277 274 288 291 287 284 285 284 276 270 273 276 282 278 284 291 292 293 293 293 293 293
305 296 295 297 299 295 280 267 266 266 280 279 280 273 273 281 283 283 281 282 286 287 280 279 280 290 291 291 288 285 280 285 278 273 275 278 282 287 291 290 291 292 292 292 292
293 291 292 297 297 290 275 269 268 280 282 282 269 277 265 278 276 276 280 283 284 288 290 286 277 286 289 293 290 286 288 278 277 267 269 276 277 279 284 287 287 288 289 289 291
293 282 291 297 293 280 269 264 270 283 284 280 276 271 276 278 280 277 279 284 286 286 290 287 282 282 287 284 284 285 282 283 282 278 274 273 276 282 284 286 286 287 289 289 290
288 273 294 294 276 281 265 268 282 281 285 280 278 280 277 278 276 279 278 283 286 286 283 287 285 277 280 287 291 290 286 284 276 276 278 278 277 285 285 286 287 288 290 290 291
284 282 293 291 273 265 268 269 278 279 281 280 277 280 282 279 272 278 277 286 286 286 282 286 282 277 279 284 287 286 287 287 286 283 278 274 276 286 286 285 287 287 289 290 291
283 275 281 284 282 274 266 266 270 282 282 284 281 282 279 276 276 272 279 284 286 285 291 288 283 280 274 279 284 281 285 286 284 278 278 280 281 286 287 286 286 286 287 289 291
284 278 280 272 274 276 273 272 271 270 280 283 279 279 278 270 274 272 275 280 284 286 284 280 278 277 280 282 283 284 284 285 284 284 279 281 282 286 288 289 289 289 289 290 290
282 278 279 280 280 277 276 269 275 277 277 275 276 280 280 275 277 271 279 278 276 281 280 281 267 273 270 281 281 279 281 282 283 285 286 286 285 292 292 289 288 289 290 290 291
290 288 283 281 278 274 273 275 277 280 281 282 281 279 279 280 282 282 282 282 281 278 273 273 278 266 262 272 274 269 277 280 281 284 283 280 284 289 289 289 290 291 292 293 292
Wind_Speed
12 12 13 15 16 17 17 17 18 18 17 18 19 19 18 19 21 12 15 12 11 18 11 8 8 10 4 5 3 4 4 6 7 1 2 6 14 17 2 5 6 5 6 12 18
11 13 14 15 15 17 17 18 18 19 19 19 19 19 19 17 14 18 15 18 25 19 12 10 10 6 3 7 5 6 9 17 9 3 3 9 9 14 10 3 6 7 13 19 18
11 12 13 14 16 17 18 19 19 19 20 20 20 19 17 11 9 6 6 19 21 13 12 11 12 5 7 5 7 6 13 16 22 11 4 8 13 11 13 1 1 12 12 7 8
11 11 13 14 15 17 19 20 21 21 20 20 19 19 16 3 7 3 9 23 17 7 4 14 12 9 4 11 9 6 8 18 18 9 5 7 8 17 1 6 14 15 17 11 11
10 11 13 15 16 18 20 22 22 22 21 20 19 18 5 6 12 15 21 10 9 8 6 13 15 14 6 7 7 7 8 11 13 10 7 10 3 7 18 9 11 17 14 12 11
11 12 13 15 17 19 22 24 23 22 22 20 15 8 2 12 8 4 8 10 10 7 9 12 14 14 5 7 14 12 7 10 9 7 6 11 15 5 16 6 9 12 11 9 12
12 13 14 16 17 20 23 25 24 23 20 15 11 4 5 15 5 6 3 5 5 9 15 18 17 13 6 5 7 9 8 8 10 9 3 7 14 9 15 12 3 6 10 11 9
11 13 14 16 18 21 23 27 24 24 17 14 11 2 7 3 6 9 8 10 12 15 14 12 14 12 5 5 1 10 1 5 9 15 7 9 16 11 15 7 11 8 8 12 14
11 12 14 16 18 21 23 26 24 17 14 14 1 2 8 9 5 9 5 9 10 9 5 12 3 5 3 3 2 5 5 7 8 20 11 8 7 18 17 10 10 9 8 10 12
12 13 14 16 19 22 21 25 12 6 10 1 1 3 5 14 13 9 7 14 5 3 4 10 6 4 1 8 8 10 5 11 6 13 10 14 14 10 9 8 10 9 8 8 13
12 13 14 15 17 18 14 6 10 9 8 3 9 6 12 11 2 15 8 4 2 3 4 7 14 8 7 7 2 9 5 5 5 9 11 14 12 5 12 12 12 8 7 5 11
13 14 14 15 16 12 4 6 4 4 9 7 13 10 10 4 8 18 12 5 6 4 17 4 2 2 7 5 4 4 2 2 6 14 5 8 11 7 8 8 16 8 7 9 4
12 13 15 15 14 3 7 5 2 2 4 9 5 5 11 2 3 12 10 7 9 9 5 6 6 6 2 5 5 2 2 4 5 5 1 6 5 8 10 12 18 15 8 7 8
13 13 13 17 4 3 4 5 5 1 4 10 9 6 10 2 6 2 5 3 6 9 3 4 6 6 5 2 2 3 2 8 16 8 4 4 4 6 10 16 19 19 14 13 7
12 11 12 6 2 3 4 5 6 2 9 14 8 8 13 7 8 5 2 4 9 8 1 3 8 3 5 3 3 3 8 6 5 5 4 0 4 7 5 10 14 15 11 11 8
10 11 13 4 2 2 5 5 0 10 4 8 8 11 12 6 12 7 6 4 2 4 5 2 5 5 2 5 2 3 9 7 6 3 2 4 4 5 3 5 6 12 11 12 9
9 9 5 2 2 6 4 3 9 9 5 11 6 9 6 12 10 11 12 13 7 6 7 8 7 7 3 5 7 4 6 4 5 4 4 5 2 7 6 5 1 5 4 6 5
12 8 3 1 4 4 2 8 11 5 5 5 5 8 7 10 5 11 7 8 10 7 4 4 5 9 8 3 4 2 3 6 6 3 3 1 5 6 9 4 2 4 6 6 5
12 2 1 4 6 3 7 8 8 7 4 5 6 7 8 6 4 6 6 10 7 13 5 2 3 6 5 5 3 4 2 3 6 3 4 3 5 8 8 2 2 4 5 4 2
2 2 1 6 6 5 8 4 4 2 3 4 4 4 4 9 8 6 8 7 10 9 6 4 4 5 7 6 5 3 2 3 4 3 2 4 3 5 7 7 6 7 6 4 4
3 4 4 6 5 7 5 5 2 4 2 3 0 3 2 3 2 6 7 2 8 9 7 8 2 3 2 2 0 3 3 1 2 5 2 1 4 2 2 3 5 5 5 5 5
3 2 4 4 7 3 2 4 1 3 1 1 3 3 0 3 5 3 4 4 9 7 4 5 2 2 2 1 4 1 3 2 4 4 1 2 6 2 1 3 4 5 5 5 4
3 2 4 4 4 1 3 3 1 3 2 3 1 2 2 3 3 4 4 5 9 6 3 6 2 2 2 1 1 1 4 2 6 2 3 4 5 2 2 4 5 5 5 5 4
3 2 3 4 2 7 5 2 1 2 1 2 1 2 3 4 3 2 5 3 7 6 7 2 3 4 1 2 2 3 3 2 5 3 1 5 5 9 7 6 3 2 3 4 5
2 0 2 2 3 4 4 5 3 2 3 3 2 2 3 3 3 3 3 6 5 9 8 5 4 3 5 5 3 3 6 3 9 9 6 4 12 8 5 8 4 6 4 4 4
6 5 1 1 2 5 1 5 7 3 6 3 4 5 4 4 4 4 3 1 3 7 6 6 2 3 5 6 6 3 6 7 7 8 11 13 16 10 9 6 5 7 6 6 5
2 1 4 6 2 4 4 6 8 6 4 5 6 2 2 2 0 4 4 5 3 2 2 3 4 5 6 5 5 6 5 4 4 4 3 8 5 7 7 7 5 7 7 7 7
Wind_Direction
356 357 354 351 348 342 336 331 328 329 325 323 323 325 328 330 324 304 266 249 257 252 286 290 300 286 233 130 148 217 149 193 253 298 353 340 360 359 271 75 47 16 150 147 153
353 354 351 345 342 335 331 327 326 326 322 320 319 319 320 327 315 287 251 281 258 250 260 248 265 261 232 160 189 197 187 189 233 146 49 343 357 342 337 93 45 53 83 129 148
349 349 345 340 338 333 327 323 324 322 321 319 315 313 318 333 311 253 115 357 354 231 251 248 245 252 227 170 177 197 210 183 227 224 82 338 322 338 332 358 214 150 144 133 150
341 345 342 337 336 331 325 323 320 320 319 316 312 312 312 338 277 336 275 338 329 307 265 241 245 222 214 208 173 183 220 199 231 266 8 338 317 320 137 286 296 158 152 147 160
344 342 338 335 334 329 325 320 318 319 316 311 312 306 317 268 254 278 289 326 344 299 237 226 230 218 206 210 196 203 175 193 192 303 323 305 305 296 299 324 322 139 147 160 174
339 339 334 333 333 328 324 317 317 317 312 311 307 325 166 272 236 297 321 334 318 317 249 273 239 211 195 253 206 178 161 166 158 183 281 285 284 1 290 353 10 136 142 164 179
340 338 335 331 333 331 323 315 316 313 316 309 295 270 236 246 314 309 39 230 251 285 261 231 257 196 183 302 220 220 174 143 153 155 183 337 274 239 265 303 272 208 160 165 190
350 344 339 336 337 332 323 313 315 311 309 297 280 243 263 314 293 293 272 273 247 259 238 251 274 225 197 285 55 183 155 187 165 145 184 135 268 271 288 333 305 226 194 174 181
345 342 340 337 338 333 324 311 310 311 320 294 308 179 274 309 284 316 292 272 260 271 246 243 258 224 244 185 67 169 150 169 150 169 143 150 248 263 252 267 286 269 208 184 177
341 341 340 340 339 336 328 314 319 29 333 145 37 61 305 312 321 298 270 273 189 152 226 211 138 184 309 164 185 189 128 181 149 179 143 188 234 272 294 323 297 284 240 189 186
335 337 337 340 340 338 340 9 14 353 37 280 273 245 263 295 8 329 353 41 108 34 171 35 146 180 171 143 133 132 169 158 186 173 155 192 223 212 263 307 294 279 285 245 210
328 330 331 334 336 340 11 76 117 228 312 263 246 253 267 282 321 353 360 50 89 106 106 95 199 209 124 139 268 65 65 299 6 149 110 205 226 202 212 237 268 256 272 271 243
323 323 324 326 329 21 87 64 334 276 267 300 284 255 318 2 17 355 352 6 51 64 68 137 183 167 151 148 228 166 169 190 148 150 64 135 242 203 218 212 250 263 248 261 210
331 327 325 329 49 318 86 338 325 89 53 327 341 316 334 13 355 82 1 3 56 52 234 357 351 154 132 126 139 35 191 119 138 162 191 171 253 237 215 214 220 239 244 239 218
358 355 336 1 235 52 305 320 294 111 57 310 325 301 313 54 284 354 3 346 79 43 69 345 9 118 95 114 88 228 112 110 97 98 97 284 93 270 240 224 221 234 227 233 207
350 344 345 40 355 185 303 313 161 45 299 332 322 332 355 16 355 311 10 49 274 70 33 344 301 47 350 31 316 135 87 54 62 78 50 244 142 280 273 234 242 233 224 217 214
345 333 340 333 289 298 317 81 42 87 326 310 324 327 340 358 12 359 9 38 33 48 23 357 343 330 13 61 7 78 67 18 8 14 213 308 223 237 248 333 80 128 90 59 56
336 325 278 129 302 328 49 50 70 239 238 293 308 323 25 354 7 17 18 23 18 22 77 88 352 351 342 81 184 62 96 148 178 198 232 252 237 255 240 209 343 69 109 78 51
335 339 342 308 326 20 66 54 183 196 264 311 337 34 342 338 353 37 52 20 360 10 40 50 38 311 32 339 15 283 84 162 103 10 56 231 277 319 281 212 99 56 65 43 7
1 9 305 311 347 54 67 158 153 200 350 345 101 348 27 335 26 33 26 358 347 7 335 359 76 356 306 333 343 91 290 68 3 106 249 289 249 236 358 57 52 39 19 21 8
47 35 266 334 57 47 112 209 179 217 162 63 165 24 359 7 2 24 352 14 355 333 6 6 110 317 352 349 326 47 360 25 152 145 170 296 268 261 121 79 77 20 3 359 357
67 55 288 26 60 62 94 181 15 34 85 104 58 359 65 325 3 70 36 2 342 332 8 13 357 130 210 144 110 67 279 56 124 281 233 143 277 54 59 81 67 32 6 5 347
99 291 323 71 120 74 302 336 168 128 193 158 206 118 301 346 101 33 327 298 4 23 9 332 33 88 114 75 96 209 257 209 107 80 229 144 259 150 82 69 55 54 7 354 350
110 79 342 29 21 127 132 256 34 241 250 152 97 324 42 16 6 259 348 330 339 19 16 308 47 18 79 16 301 294 224 213 149 183 241 222 303 310 15 49 50 18 319 328 336
63 77 170 199 316 108 101 155 136 151 308 99 33 161 154 57 13 3 324 328 347 19 1 78 39 354 280 271 279 232 295 244 210 238 200 244 244 273 304 307 259 233 230 268 297
140 143 347 13 76 96 341 229 161 173 137 254 152 202 180 142 170 232 14 84 246 353 24 357 317 36 314 354 18 310 289 282 256 257 255 273 282 289 289 312 305 286 291 311 320
194 106 105 165 169 101 211 187 197 157 220 178 175 142 180 195 335 274 256 265 255 56 352 55 11 35 289 336 351 344 245 237 264 234 228 251 268 283 307 323 307 321 320 307 291